| time (UTC) | temp C | wind direction | speed KPH | gust KPH | rain 1hr cm | rain 24hr cm | rain mn cm | humidity % | barometer mb |
| 20260509001535 | 15 | 216 | 4.8 | 14.5 | 0.00 | 0.00 | 0.00 | 49 | 1005.0 |
| 20260509000043 | 15 | 130 | 6.4 | 19.3 | 0.00 | 0.00 | 0.00 | 47 | 1005.3 |
| 20260508234538 | 15 | 221 | 3.2 | 11.3 | 0.00 | 0.00 | 0.00 | 41 | 1005.3 |
| 20260508233038 | 15 | 150 | 4.8 | 12.9 | 0.00 | 0.00 | 0.00 | 38 | 1005.5 |
| 20260508231539 | 15 | 171 | 6.4 | 12.9 | 0.00 | 0.00 | 0.00 | 36 | 1005.5 |
| 20260508230044 | 16 | 172 | 6.4 | 20.9 | 0.00 | 0.00 | 0.00 | 36 | 1005.6 |
| 20260508224541 | 16 | 161 | 4.8 | 25.7 | 0.00 | 0.00 | 0.00 | 35 | 1005.7 |
| 20260508223035 | 17 | 184 | 6.4 | 24.1 | 0.00 | 0.00 | 0.00 | 33 | 1005.6 |
| 20260508221539 | 18 | 163 | 6.4 | 17.7 | 0.00 | 0.00 | 0.00 | 33 | 1005.6 |
| 20260508220110 | 17 | 211 | 6.4 | 12.9 | 0.00 | 0.00 | 0.00 | 31 | 1005.7 |
| 20260508214537 | 19 | 120 | 1.6 | 11.3 | 0.00 | 0.00 | 0.00 | 28 | 1005.7 |
| 20260508213041 | 20 | 233 | 4.8 | 20.9 | 0.00 | 0.00 | 0.00 | 23 | 1005.7 |
| 20260508211545 | 19 | 236 | 8.0 | 19.3 | 0.00 | 0.00 | 0.00 | 23 | 1005.8 |
| 20260508210039 | 20 | 252 | 8.0 | 16.1 | 0.00 | 0.00 | 0.00 | 22 | 1005.9 |
| 20260508204542 | 18 | 274 | 6.4 | 24.1 | 0.00 | 0.00 | 0.00 | 24 | 1006.2 |
| 20260508203038 | 18 | 214 | 8.0 | 17.7 | 0.00 | 0.00 | 0.00 | 24 | 1006.5 |
| 20260508201536 | 18 | 256 | 12.9 | 30.6 | 0.00 | 0.00 | 0.00 | 24 | 1006.8 |
| 20260508200043 | 18 | 264 | 8.0 | 25.7 | 0.00 | 0.00 | 0.00 | 24 | 1007.0 |
| 20260508194541 | 18 | 160 | 6.4 | 19.3 | 0.00 | 0.00 | 0.00 | 25 | 1007.2 |
| 20260508193040 | 18 | 253 | 9.7 | 22.5 | 0.00 | 0.00 | 0.00 | 25 | 1007.5 |
| 20260508191539 | 18 | 205 | 8.0 | 17.7 | 0.00 | 0.00 | 0.00 | 24 | 1007.4 |
| 20260508190041 | 18 | 257 | 12.9 | 29.0 | 0.00 | 0.00 | 0.00 | 25 | 1007.7 |
| 20260508184543 | 18 | 247 | 4.8 | 16.1 | 0.00 | 0.00 | 0.00 | 26 | 1008.0 |
| 20260508183044 | 17 | 237 | 8.0 | 19.3 | 0.00 | 0.00 | 0.00 | 26 | 1008.1 |
| 20260508181602 | 17 | 295 | 9.7 | 19.3 | 0.00 | 0.00 | 0.00 | 25 | 1008.2 |
| 20260508180046 | 17 | 177 | 4.8 | 16.1 | 0.00 | 0.00 | 0.00 | 26 | 1008.4 |
| 20260508174548 | 17 | 266 | 9.7 | 17.7 | 0.00 | 0.00 | 0.00 | 27 | 1008.8 |
| 20260508173037 | 17 | 226 | 9.7 | 24.1 | 0.00 | 0.00 | 0.00 | 27 | 1009.0 |
| 20260508171536 | 16 | 295 | 6.4 | 11.3 | 0.00 | 0.00 | 0.00 | 26 | 1009.2 |
| 20260508170043 | 16 | 245 | 3.2 | 12.9 | 0.00 | 0.00 | 0.00 | 26 | 1009.4 |
| 20260508164541 | 16 | 257 | 9.7 | 19.3 | 0.00 | 0.00 | 0.00 | 28 | 1009.6 |
| 20260508163038 | 16 | 248 | 3.2 | 11.3 | 0.00 | 0.00 | 0.00 | 27 | 1009.8 |
| 20260508161537 | 16 | 164 | 4.8 | 17.7 | 0.00 | 0.00 | 0.00 | 31 | 1010.1 |
| 20260508160036 | 15 | 204 | 6.4 | 14.5 | 0.00 | 0.00 | 0.00 | 31 | 1010.3 |
| 20260508154541 | 15 | 244 | 4.8 | 11.3 | 0.00 | 0.00 | 0.00 | 32 | 1010.4 |
| 20260508153043 | 15 | 181 | 4.8 | 12.9 | 0.00 | 0.00 | 0.00 | 38 | 1010.5 |
| 20260508151539 | 15 | 194 | 1.6 | 11.3 | 0.00 | 0.00 | 0.00 | 40 | 1010.6 |
| 20260508150039 | 14 | 211 | 4.8 | 12.9 | 0.00 | 0.00 | 0.00 | 41 | 1010.8 |
| 20260508144537 | 13 | 209 | 6.4 | 12.9 | 0.00 | 0.00 | 0.00 | 45 | 1010.5 |
| 20260508143036 | 12 | 227 | 4.8 | 14.5 | 0.00 | 0.00 | 0.00 | 51 | 1010.7 |
| 20260508141553 | 12 | 209 | 4.8 | 11.3 | 0.00 | 0.00 | 0.00 | 54 | 1010.7 |
| 20260508140041 | 11 | 220 | 4.8 | 11.3 | 0.00 | 0.00 | 0.00 | 57 | 1010.7 |
| 20260508134554 | 11 | 206 | 4.8 | 12.9 | 0.00 | 0.00 | 0.00 | 61 | 1010.9 |
| 20260508133038 | 10 | 243 | 3.2 | 8.0 | 0.00 | 0.00 | 0.00 | 67 | 1010.8 |
| 20260508131537 | 9 | 214 | 1.6 | 6.4 | 0.00 | 0.00 | 0.00 | 70 | 1011.0 |
| 20260508130041 | 7 | 153 | 3.2 | 9.7 | 0.00 | 0.00 | 0.00 | 75 | 1011.3 |
| 20260508124539 | 7 | 221 | 3.2 | 6.4 | 0.00 | 0.00 | 0.00 | 76 | 1011.1 |
| 20260508123040 | 6 | 229 | 1.6 | 8.0 | 0.00 | 0.00 | 0.00 | 77 | 1011.3 |
| 20260508121541 | 6 | 261 | 0.0 | 6.4 | 0.00 | 0.00 | 0.00 | 79 | 1011.4 |
| 20260508120035 | 5 | 237 | 1.6 | 4.8 | 0.00 | 0.00 | 0.00 | 82 | 1011.3 |
| 20260508114548 | 3 | 226 | 1.6 | 4.8 | 0.00 | 0.00 | 0.00 | 85 | 1011.0 |
| 20260508113040 | 2 | 0 | 0.0 | 1.6 | 0.00 | 0.00 | 0.00 | 89 | 1011.2 |
| 20260508111543 | 1 | 0 | 0.0 | 1.6 | 0.00 | 0.00 | 0.00 | 90 | 1011.2 |
| 20260508110038 | 0 | 0 | 0.0 | 0.0 | 0.00 | 0.00 | 0.00 | 90 | 1010.8 |
| 20260508104536 | 0 | 0 | 0.0 | 0.0 | 0.00 | 0.00 | 0.00 | 90 | 1010.9 |
| 20260508103039 | 0 | 0 | 0.0 | 0.0 | 0.00 | 0.00 | 0.00 | 89 | 1011.0 |
| 20260508101535 | 0 | 0 | 0.0 | 0.0 | 0.00 | 0.00 | 0.00 | 89 | 1011.0 |
| 20260508100034 | 0 | 0 | 0.0 | 0.0 | 0.00 | 0.00 | 0.00 | 89 | 1010.9 |
| 20260508094602 | 1 | 0 | 0.0 | 1.6 | 0.00 | 0.00 | 0.00 | 88 | 1010.9 |
| 20260508093038 | 0 | 0 | 0.0 | 0.0 | 0.00 | 0.00 | 0.00 | 88 | 1011.0 |
| 20260508091540 | 0 | 0 | 0.0 | 0.0 | 0.00 | 0.00 | 0.00 | 88 | 1011.3 |
| 20260508090038 | 0 | 0 | 0.0 | 0.0 | 0.00 | 0.00 | 0.00 | 87 | 1011.1 |
| 20260508084534 | 0 | 0 | 0.0 | 0.0 | 0.00 | 0.00 | 0.00 | 87 | 1011.5 |
| 20260508083031 | 0 | 0 | 0.0 | 0.0 | 0.00 | 0.00 | 0.00 | 87 | 1011.2 |
| 20260508081559 | 0 | 0 | 0.0 | 0.0 | 0.00 | 0.00 | 0.00 | 87 | 1011.4 |
| 20260508080038 | 0 | 150 | 0.0 | 1.6 | 0.00 | 0.00 | 0.00 | 86 | 1011.6 |
| 20260508074536 | 1 | 0 | 0.0 | 1.6 | 0.00 | 0.00 | 0.00 | 86 | 1011.6 |
| 20260508073041 | 1 | 0 | 0.0 | 0.0 | 0.00 | 0.00 | 0.00 | 85 | 1011.7 |
| 20260508071542 | 1 | 0 | 0.0 | 3.2 | 0.00 | 0.00 | 0.00 | 85 | 1011.9 |
| 20260508070043 | 1 | 0 | 0.0 | 1.6 | 0.00 | 0.00 | 0.00 | 85 | 1011.9 |
| 20260508064539 | 1 | 0 | 0.0 | 1.6 | 0.00 | 0.00 | 0.00 | 84 | 1012.0 |
| 20260508063047 | 1 | 0 | 0.0 | 1.6 | 0.00 | 0.00 | 0.00 | 84 | 1012.0 |
| 20260508061535 | 1 | 0 | 0.0 | 0.0 | 0.00 | 0.00 | 0.00 | 84 | 1012.0 |
| 20260508060037 | 1 | 0 | 0.0 | 0.0 | 0.00 | 0.00 | 0.00 | 83 | 1012.3 |
| 20260508054532 | 2 | 0 | 0.0 | 0.0 | 0.00 | 0.00 | 0.00 | 82 | 1012.4 |
| 20260508053041 | 2 | 0 | 0.0 | 0.0 | 0.00 | 0.00 | 0.00 | 81 | 1012.5 |
| 20260508051539 | 2 | 0 | 0.0 | 0.0 | 0.00 | 0.00 | 0.00 | 81 | 1012.5 |
| 20260508050042 | 2 | 0 | 0.0 | 0.0 | 0.00 | 0.00 | 0.00 | 83 | 1012.5 |
| 20260508044534 | 2 | 0 | 0.0 | 0.0 | 0.00 | 0.00 | 0.00 | 81 | 1012.4 |
| 20260508043039 | 2 | 0 | 0.0 | 0.0 | 0.00 | 0.00 | 0.00 | 81 | 1012.2 |
| 20260508041537 | 2 | 0 | 0.0 | 0.0 | 0.00 | 0.00 | 0.00 | 80 | 1012.1 |
| 20260508040045 | 2 | 0 | 0.0 | 0.0 | 0.00 | 0.00 | 0.00 | 80 | 1011.9 |
| 20260508034535 | 2 | 0 | 0.0 | 1.6 | 0.00 | 0.00 | 0.00 | 78 | 1011.8 |
| 20260508033039 | 3 | 0 | 0.0 | 0.0 | 0.00 | 0.00 | 0.00 | 76 | 1011.6 |
| 20260508031610 | 3 | 0 | 0.0 | 0.0 | 0.00 | 0.00 | 0.00 | 75 | 1011.7 |
| 20260508030037 | 4 | 0 | 0.0 | 1.6 | 0.00 | 0.00 | 0.00 | 73 | 1011.6 |
| 20260508024546 | 4 | 0 | 0.0 | 1.6 | 0.00 | 0.00 | 0.00 | 72 | 1011.5 |
| 20260508023035 | 5 | 134 | 0.0 | 1.6 | 0.00 | 0.00 | 0.00 | 71 | 1011.2 |
| 20260508021540 | 5 | 135 | 0.0 | 3.2 | 0.00 | 0.00 | 0.00 | 69 | 1011.0 |
| 20260508020031 | 5 | 138 | 0.0 | 6.4 | 0.00 | 0.00 | 0.00 | 67 | 1011.1 |
| 20260508014542 | 5 | 0 | 0.0 | 3.2 | 0.00 | 0.00 | 0.00 | 67 | 1010.9 |
| 20260508013035 | 5 | 104 | 0.0 | 6.4 | 0.00 | 0.00 | 0.00 | 66 | 1010.7 |
| 20260508011536 | 5 | 104 | 3.2 | 8.0 | 0.00 | 0.00 | 0.00 | 64 | 1010.7 |
| 20260508010036 | 6 | 74 | 3.2 | 11.3 | 0.00 | 0.00 | 0.00 | 62 | 1010.6 |
| 20260508004538 | 6 | 0 | 1.6 | 14.5 | 0.00 | 0.00 | 0.00 | 61 | 1010.5 |
| 20260508003036 | 6 | 125 | 4.8 | 12.9 | 0.00 | 0.00 | 0.00 | 63 | 1010.3 |